This demonstration page uses our WeatherBlox Daily Observations layout. Learn more.

Left ArrowRight Arrow

Hourly Observations for May 16, 2015

Temp ( °F °C ) Dew Point ( °F °C ) Humidity (%) Winds ( mph kmh ) Pressure ( in mb ) Visibility ( mi km ) Precip ( " mm )
12:53 am 00:53 Clear 65 18.3 62 16.7 90 90 SSE 13 20 29.70 1006 10 16 0.00 0.03
1:53 am 01:53 Clear 66 18.9 63 17.2 90 90 SSE 14 22 29.68 1005 10 16 0.00 0.00
2:53 am 02:53 Clear 66 18.9 63 17.2 90 90 S 12 19 29.68 1005 10 16 0.00 0.00
3:29 am 03:29 Mostly Cloudy with Nearby Thunderstorms 66 18.9 63 17.2 90 90 S 13 20 29.65 1004 10 16 0.00 0.00
3:36 am 03:36 Mostly Cloudy with Nearby Thunderstorms 66 18.9 63 17.2 90 90 SW 10 17 29.68 1005 10 16 0.00 0.00
3:53 am 03:53 Cloudy with Thunderstorms 63 17.2 57 13.9 81 81 WSW 15 24 29.69 1006 8 13 0.01 0.25
4:20 am 04:20 Cloudy with Nearby Thunderstorms 61 16 55 13 83 83 WNW 17 28 29.68 1005 4 6 0.00 0.00
4:28 am 04:28 Cloudy with Thunderstorms 61 16 55 13 83 83 W 15 24 29.68 1005 7 11 0.00 0.00
4:43 am 04:43 Cloudy with Thunderstorms 60 15.6 58 14.4 93 93 WSW 5 7 29.68 1005 3 4 0.32 8.13
4:51 am 04:51 Cloudy with Thunderstorms 61 16 57 14 88 88 Calm 29.68 1005 6 10 0.00 0.00
4:53 am 04:53 Cloudy with Thunderstorms 60 15.6 58 14.4 93 93 SSW 5 7 29.70 1006 7 11 0.33 8.38
5:11 am 05:11 Mostly Cloudy with Nearby Thunderstorms 60 15.6 58 14.4 93 93 SSE 5 7 29.68 1005 10 16 0.00 0.03
5:21 am 05:21 Mostly Cloudy with Nearby Thunderstorms 61 16 57 14 88 88 SE 6 9 29.68 1005 10 16 0.00 0.00
5:23 am 05:23 Mostly Cloudy 61 16 57 14 88 88 ESE 6 9 29.68 1005 10 16 0.00 0.00
5:53 am 05:53 Partly Cloudy 60 15.6 59 15 96 96 E 10 17 29.67 1005 10 16 0.00 0.03
6:53 am 06:53 Mostly Sunny 63 17.2 62 16.7 97 97 S 8 13 29.69 1006 9 14 0.00 0.03
7:35 am 07:35 Mostly Cloudy with Light Rain 63 17 61 16 94 94 SSE 16 26 29.68 1005 10 16 0.00 0.00
7:40 am 07:40 Mostly Cloudy with Light Rain 63 17 61 16 94 94 SSE 20 31 29.68 1005 10 16 0.00 0.00
7:53 am 07:53 Mostly Cloudy 63 17.2 59 15 87 87 S 18 30 29.71 1006 10 16 0.01 0.25
8:53 am 08:53 Cloudy with Light Rain 61 16.1 57 13.9 87 87 SSW 17 28 29.73 1007 10 16 0.01 0.25
9:53 am 09:53 Sunny 64 17.8 58 14.4 81 81 SSE 10 17 29.67 1005 10 16 0.00 0.03
10:53 am 10:53 Sunny 67 19.4 57 13.9 71 71 S 16 26 29.67 1005 10 16 0.00 0.00
11:53 am 11:53 Sunny 68 20 58 14.4 70 70 S 15 24 29.67 1005 10 16 0.00 0.00
12:53 pm 12:53 Sunny 69 20.6 58 14.4 68 68 SSW 16 26 29.69 1005 10 16 0.00 0.00
1:53 pm 13:53 Sunny 70 21.1 58 14.4 66 66 S 17 28 29.67 1005 10 16 0.00 0.00
2:53 pm 14:53 Sunny 70 21.1 58 14.4 66 66 S 15 24 29.68 1005 10 16 0.00 0.00
3:53 pm 15:53 Mostly Cloudy 68 20 58 14.4 70 70 S 22 35 29.66 1004 10 16 0.00 0.00
4:53 pm 16:53 Sunny 66 18.9 56 13.3 70 70 S 13 20 29.65 1004 10 16 0.00 0.00
5:53 pm 17:53 Sunny 68 20 56 13.3 65 65 SSE 14 22 29.63 1003 10 16 0.00 0.00
6:53 pm 18:53 Sunny 69 20.6 55 12.8 61 61 SSE 16 26 29.60 1002 10 16 0.00 0.00
7:53 pm 19:53 Sunny 65 18.3 54 12.2 68 68 S 16 26 29.65 1004 10 16 0.00 0.00
8:53 pm 20:53 Mostly Cloudy 63 17.2 55 12.8 76 76 S 10 17 29.67 1005 10 16 0.00 0.00
9:20 pm 21:20 Cloudy 63 17 55 13 77 77 S 16 26 29.65 1004 10 16 0.00 0.00
9:53 pm 21:53 Cloudy 61 16.1 56 13.3 84 84 S 12 19 29.66 1005 10 16 0.00 0.03
10:08 pm 22:08 Cloudy 61 16 57 14 88 88 S 9 15 29.65 1004 10 16 0.00 0.00
10:53 pm 22:53 Partly Cloudy 60 15.6 54 12.2 80 80 SSW 12 19 29.63 1003 10 16 0.00 0.00
11:53 pm 23:53 Mostly Cloudy 57 13.9 51 10.6 81 81 SE 8 13 29.58 1002 10 16 0.00 0.00

Powered by AerisWeather